Regional Weather Roundup
Issued by NWS

Home | Current Version | Previous Version | Graphics & Text | Print | Product List | Glossary On
Versions: 1 2 3 4 5 6 7 8 9 10 11 12 13 14 15 16 17 18 19 20 21 22 23 24 25 26 27 28 29 30 31 32 33 34 35 36 37 38 39 40 41 42 43 44 45 46 47 48 49 50
000
ASUS43 KLMK 022310
RWRKY
KENTUCKY REGIONAL WEATHER ROUNDUP
NATIONAL WEATHER SERVICE LOUISVILLE KY
700 PM EDT TUE SEP 02 2014

NOTE "FAIR" INDICATES FEW OR NO CLOUDS BELOW 12,000 FEET
WITH NO SIGNIFICANT WEATHER AND/OR OBSTRUCTIONS TO VISIBILITY.

KYZ001>023-026-027-061>063-070>075-030000-
WESTERN AND SOUTH CENTRAL KENTUCKY

CITY           SKY/WX    TMP DP  RH WIND       PRES   REMARKS
PADUCAH        PTSUNNY   83  69  62 NW5       29.92S
HENDERSON      MOSUNNY   82  70  65 NW7       29.93S
OWENSBORO      MOSUNNY   82  72  69 NW9       29.93S
HOPKINSVILLE   CLOUDY    74  74 100 S6        29.95F
BOWLING GREEN  PTSUNNY   80  73  79 S5        29.95R
GLASGOW        PTSUNNY   77  70  80 SW5       29.96R
$$

KYZ024-025-028>034-038-045-046-053-030000-
NORTH CENTRAL KENTUCKY

CITY           SKY/WX    TMP DP  RH WIND       PRES   REMARKS
LOUISVILLE/SDF MOSUNNY   83  71  67 NW10      29.92F
LOUISVILLE/LOU SUNNY     80  72  76 N7        29.93F
FORT KNOX      PTSUNNY   80  72  75 N8        29.93S
$$

KYZ035>037-039>044-047>052-055>060-089>105-030000-
NORTHEAST KENTUCKY

CITY           SKY/WX    TMP DP  RH WIND       PRES   REMARKS
LEXINGTON      TSTM      73  69  87 SW8       29.96S VSB 1
COVINGTON      MOSUNNY   78  70  76 NW3       29.93F
FRANKFORT      PTSUNNY   76  70  82 N5        29.95R
$$

KYZ054-064>069-076>088-106>120-030000-
SOUTHEAST KENTUCKY

CITY           SKY/WX    TMP DP  RH WIND       PRES   REMARKS
JACKSON        TSTM      69  66  90 CALM      29.98F FOG
LONDON         TSTM      73  69  87 S6        30.01R FOG
SOMERSET       PTSUNNY   70  70 100 CALM      29.99S
MIDDLESBORO    CLOUDY    77  69  78 NW22G30   30.01R
MONTICELLO     CLOUDY    71  69  93 CALM      30.02R
$$



USA.gov is the U.S. government's official web portal to all federal, state and local government web resources and services.